This is the latest recevied weather packets stored in our database for station/object EA7OC-10. If no packets are shown the sender has not sent any weather packets the latest 10 day(s).
| Time | Temp. | Humidity | Pressure | Rain* | Wind** | Luminosity | Snow |
|---|---|---|---|---|---|---|---|
| 1787729876 | 28.89° C | 37% | 1014.5 hPa | - | - | - | - |
| 1787728976 | 25.56° C | 35% | 1014.3 hPa | - | - | - | - |
| 1787728076 | 25° C | 34% | 1014.3 hPa | - | - | - | - |
| 1787727175 | 23.89° C | 34% | 1014.2 hPa | - | - | - | - |
| 1787726275 | 22.78° C | 34% | 1014.2 hPa | - | - | - | - |
| 1787725374 | 21.67° C | 34% | 1014 hPa | - | - | - | - |
| 1787724474 | 20.56° C | 34% | 1013.9 hPa | - | - | - | - |
| 1787723574 | 20.56° C | 33% | 1013.7 hPa | - | - | - | - |
| 1787722674 | 20.56° C | 33% | 1013.6 hPa | - | - | - | - |
| 1787721773 | 20.56° C | 33% | 1013.6 hPa | - | - | - | - |
| 1787720873 | 21.11° C | 32% | 1013.5 hPa | - | - | - | - |
| 1787719973 | 20.56° C | 33% | 1013.5 hPa | - | - | - | - |
| 1787719073 | 20.56° C | 33% | 1013.6 hPa | - | - | - | - |
| 1787718173 | 20.56° C | 33% | 1013.7 hPa | - | - | - | - |
| 1787717273 | 20.56° C | 33% | 1013.8 hPa | - | - | - | - |
| 1787716373 | 20.56° C | 33% | 1014 hPa | - | - | - | - |
| 1787715472 | 20.56° C | 33% | 1013.9 hPa | - | - | - | - |
| 1787714572 | 20.56° C | 32% | 1013.9 hPa | - | - | - | - |
| 1787713672 | 21.11° C | 32% | 1013.7 hPa | - | - | - | - |
| 1787712771 | 21.67° C | 33% | 1013.7 hPa | - | - | - | - |
| 1787711871 | 22.22° C | 32% | 1013.7 hPa | - | - | - | - |
| 1787710971 | 22.22° C | 32% | 1013.9 hPa | - | - | - | - |
| 1787710071 | 22.22° C | 33% | 1013.8 hPa | - | - | - | - |
| 1787709171 | 22.22° C | 33% | 1013.8 hPa | - | - | - | - |
| 1787708271 | 22.78° C | 32% | 1013.8 hPa | - | - | - | - |
* Rain since midnight (hover to see other rain measurements)
** Current wind speed in m/s (hover to see current wind gust speed)